Regional Weather Roundup
Issued by NWS

Home | Current Version | Previous Version | Text Only | Print | Product List | Glossary On
Versions: 1 2 3 4 5 6 7 8 9 10 11 12 13 14 15 16 17 18 19 20 21 22 23 24 25 26 27
000
ASUS44 KBMX 200610
RWRAL

ALABAMA REGIONAL WEATHER ROUNDUP
NATIONAL WEATHER SERVICE BIRMINGHAM AL
1200 AM CST MON NOV 20 2017

NOTE: "FAIR" INDICATES FEW OR NO CLOUDS BELOW 12,000 FEET
WITH NO SIGNIFICANT WEATHER AND/OR OBSTRUCTIONS TO VISIBILITY.

THE REMARK "TC" DENOTES TEMPERATURE IN DEGREES CELSIUS.

ALZ001>011-014-016>018-020-200700-
NORTH ALABAMA

CITY           SKY/WX    TMP DP  RH WIND       PRES   REMARKS
MUSCLE SHOALS  CLEAR     35  26  69 CALM      30.27R
6HR MIN TEMP:  34; 6HR MAX TEMP:  44;

HUNTSVILLE     CLEAR     32  26  78 N5        30.24S WCI  27
6HR MIN TEMP:  32; 6HR MAX TEMP:  43;

DECATUR        CLEAR     32  27  81 N7        30.25S WCI  26
6HR MIN TEMP:  29; 6HR MAX TEMP:  39;

HALEYVILLE     FAIR      30  28  92 N3        30.25S
6HR MIN TEMP:  30; 6HR MAX TEMP:  38;

GADSDEN        CLEAR     30  30 100 CALM      30.23R
6HR MIN TEMP:  30; 6HR MAX TEMP:  44;

$$

ALZ012-013-022-023-030>036-040>044-200700-
WEST CENTRAL ALABAMA

CITY           SKY/WX    TMP DP  RH WIND       PRES   REMARKS
TUSCALOOSA     CLEAR     35  33  92 CALM      30.26S
6HR MIN TEMP:  34; 6HR MAX TEMP:  49;

DEMOPOLIS        N/A     35  32  88 CALM      30.25S
6HR MIN TEMP:  33; 6HR MAX TEMP:  42;

$$

ALZ015-024>026-033>036-041>044-200700-
CENTRAL ALABAMA

CITY           SKY/WX    TMP DP  RH WIND       PRES   REMARKS
BIRMINGHAM     CLEAR     35  30  82 NE3       30.25R
6HR MIN TEMP:  32; 6HR MAX TEMP:  44;

MONTGOMERY     CLEAR     39  30  70 NW3       30.21F
6HR MIN TEMP:  37; 6HR MAX TEMP:  48;

SHELBY CO ARPT CLEAR     38  29  70 CALM      30.22S
6HR MIN TEMP:  36; 6HR MAX TEMP:  47;

MAXWELL AFB    CLEAR     38  33  82 CALM      30.20F
6HR MIN TEMP:  38; 6HR MAX TEMP:  49;

GREENVILLE     FAIR      41  31  67 N6        30.20S
6HR MIN TEMP:  40; 6HR MAX TEMP:  50;

SELMA          FAIR      36  32  87 CALM      30.22F
PRATTVILLE     FAIR      33  32  96 CALM      30.21F
6HR MIN TEMP:  33; 6HR MAX TEMP:  47;

BESSEMER       FAIR      36  28  73 N6        30.23S WCI  31
6HR MIN TEMP:  35; 6HR MAX TEMP:  45;

TALLADEGA      FAIR      32  31  96 CALM      30.24R
6HR MIN TEMP:  32; 6HR MAX TEMP:  46;

PELL CITY      CLEAR     28  30 100 CALM      30.24R
MARION         FAIR      35  31  88 NW5       30.23S WCI  30
6HR MIN TEMP:  34; 6HR MAX TEMP:  46;

SYLACAUGA      FAIR      38  31  75 CALM      30.22S
6HR MIN TEMP:  38; 6HR MAX TEMP:  47;

$$

ALZ019-021-028-029-037-038-045>048-200700-
EAST CENTRAL ALABAMA

CITY           SKY/WX    TMP DP  RH WIND       PRES   REMARKS
ANNISTON       CLEAR     34  29  82 N3        30.22R
6HR MIN TEMP:  32; 6HR MAX TEMP:  47;

ALEXANDER CITY CLEAR     31  29  94 CALM      30.20R
6HR MIN TEMP:  31; 6HR MAX TEMP:  46;

AUBURN         CLEAR     37  31  78 N8        30.19S WCI  31
6HR MIN TEMP:  37; 6HR MAX TEMP:  46;

$$

ALZ051>064-200700-
SOUTHWEST ALABAMA

CITY           SKY/WX    TMP DP  RH WIND       PRES   REMARKS
MOBILE         CLEAR     42  33  70 MISG      30.21S
6HR MIN TEMP:  42; 6HR MAX TEMP:  51;

BROOKLEY FIELD PTCLDY    45  36  70 N7        30.22S
6HR MIN TEMP:  44; 6HR MAX TEMP:  52;

EVERGREEN      CLEAR     37  34  89 NW3       30.22S
6HR MIN TEMP:  37; 6HR MAX TEMP:  48;

$$

ALZ049-050-065>069-200700-
SOUTHEAST ALABAMA

CITY           SKY/WX    TMP DP  RH WIND       PRES   REMARKS
DOTHAN         CLOUDY    41  36  82 N8        30.21R
6HR MIN TEMP:  41; 6HR MAX TEMP:  51;

OZARK          CLOUDY    42  34  72 N8        30.18R
6HR MIN TEMP:  42; 6HR MAX TEMP:  50;

TROY           CLEAR     34  34 100 CALM      30.20S
6HR MIN TEMP:  34; 6HR MAX TEMP:  47;

EUFAULA        FAIR      40  34  79 NW5       30.18R
6HR MIN TEMP:  39; 6HR MAX TEMP:  52;

$$




USA.gov is the U.S. government's official web portal to all federal, state and local government web resources and services.